Location: Ceske Budejovice
(48.9830°N, 14.4670°E)
Time: 01:23:11
(UTC+02:00)

ISS - Visible Passes

Search period start: 02 October 2020 00:00
Search period end: 12 October 2020 00:00
Orbit: 419 x 421 km, 51.6° (Epoch: 02 October)

Date Brightness Start Highest point End Pass type
(mag) Time Alt. Az. Time Alt. Az. Time Alt. Az.
02 Oct -3.2 20:19:14 10° WNW 20:22:32 51° SSW 20:23:18 41° SSE visible
03 Oct -3.6 19:31:55 10° WNW 19:35:17 73° SSW 19:37:58 15° ESE visible
03 Oct -1.1 21:09:28 10° W 21:10:57 15° WSW 21:10:57 15° WSW visible
04 Oct -1.9 20:21:46 10° W 20:24:32 24° SW 20:25:41 20° S visible
05 Oct -2.4 19:34:15 10° W 19:37:21 35° SSW 19:40:28 10° SE visible
06 Oct -0.7 20:25:40 10° WSW 20:26:19 10° SW 20:26:57 10° SW visible
07 Oct -1.0 19:37:04 10° W 19:39:13 16° SW 19:41:21 10° S visible
10 Oct -0.3 18:53:15 10° SW 18:53:43 10° SW 18:54:12 10° SW visible
